Location: Clanezzo
(45.7500°N, 9.6000°E)
Time: 00:17:42
(UTC+00:00)

USA 308 - Pass Details

Date: 30 September 2021
Orbit: 566 x 573 km, 54.0° (Epoch: 23 September)

Event Time Altitude Azimuth Distance (km) Brightness Sun altitude
Rises 19:29:03 0° 300° (WNW) 2,772 7.8 -25.6°
Reaches altitude 10° 19:31:24 10° 293° (WNW) 1,873 6.6 -26.0°
Enters shadow 19:34:55 38° 240° (WSW) 875 4.0 -26.6°
